www.pogodaiklimat.ru

ПОГОДА в Блайте, CA

  • Прогноз погоды в Блайте
  • Монитор погоды в Блайте
  • Климат в Блайте

АРХИВ ПОГОДЫ в Блайте

Время (UTC), дата Ветер
(напр.,м/с)
 
Видим.   Явления Облачность Т
(С)
Тd
(С)
f
(%)
Тe
(С)
Тes
(С)
Комфортность

P
(гПа)

Po
(гПа)
Тmin
(С)
Tmax
(С)
R
(мм)
SD
(см)
19:52 18.08 Ю  16 км    2/0 3300 м
[средняя] 
+40.6  -2.8  +37  +43  очень
жарко 
1007.5  994.0         
20:52 18.08 ЮВ  16 км    8/0 3300 м
[средняя] 
+41.7  -3.3  +38  +40  очень
жарко 
1006.6  993.0         
21:52 18.08 Ю  5
{9} 
16 км    8/0 3300 м
[средняя] 
+41.7  -1.1  +38  +40  очень
жарко 
1005.7  992.0         
22:52 18.08 Ю  16 км    8/0 3300 м
[средняя] 
+41.7  -1.7  +38  +40  очень
жарко 
1005.2  991.6  +36.1  +42.2     
23:52 18.08 Ю  16 км    8/0 3300 м
[средняя] 
+41.7  -2.8  +38  +38  очень
жарко 
1004.9  991.3         
00:52 19.08 ЮЗ  16 км    8/0 3300 м
[средняя] 
+40.6  -4.4  +36  +37  очень
жарко 
1005.0  991.3         
01:52 19.08 З  16 км    5/0 3300 м
[средняя] 
+38.3  -2.2  +34  +34  очень
жарко 
1005.4  991.6         
02:52 19.08 ЮЗ  16 км    5/0 3600 м
[средняя] 
+37.2  0.0  10  +34  +34  очень
жарко 
1006.1  992.3         
03:52 19.08 З  16 км    ясно  +34.4  -0.6  11  +31  +31  жарко  1006.7  993.0         
04:52 19.08 З  16 км    ясно  +33.9  +0.6  12  +31  +31  жарко  1006.7  993.0  +33.3  +42.2     
05:52 19.08 ЮЗ  16 км    ясно  +32.8  +1.1  13  +30  +30  жарко  1007.0  993.3         
06:52 19.08 ЮЗ  16 км    ясно  +30.6  +4.4  19  +29  +29  жарко  1007.2  993.6         
07:52 19.08 Ю  16 км    ясно  +28.9  +11.1  33  +29  +29  жарко  1007.2  993.6         
08:52 19.08 Ю  16 км    ясно  +29.4  +10.6  31  +30  +30  жарко  1007.4  993.6         
09:52 19.08 Ю  16 км    ясно  +28.3  +15.0  44  +31  +31  душно  1007.6  994.0         
10:52 19.08 Ю  16 км    ясно  +27.8  +13.3  41  +30  +30  жарко  1007.9  994.3  +27.8  +33.9     
11:52 19.08 нст  16 км    ясно  +27.8  +12.8  40  +29  +29  жарко  1008.6  995.0         
12:52 19.08 С  16 км    ясно  +25.6  +10.0  37  +26  +26  жарко  1009.2  995.3         
13:52 19.08   16 км    ясно  +28.3  +13.3  40  +30  +31  жарко  1009.7  996.0         
14:52 19.08 Ю  16 км    ясно  +32.2  +15.0  35  +34  +37  душно  1009.8  996.0         
15:52 19.08 ЮВ  16 км    ясно  +34.4  +12.8  27  +35  +41  очень
жарко 
1010.2  996.3         
16:52 19.08 нст  16 км    ясно  +36.7  +11.7  22  +36  +46  очень
жарко 
1010.3  996.6  +24.4  +36.7     
17:52 19.08 нст  16 км    2/0 3000 м
[средняя] 
+39.4  +6.7  14  +37  +50  очень
жарко 
1009.6  996.0         
18:52 19.08 Ю  16 км    2/0 3300 м
[средняя] 
+41.1  +6.7  13  +39  +48  очень
жарко 
1008.8  995.3         
19:52 19.08 Ю  4
{8} 
16 км    8/0 3300 м
[средняя] 
+41.7  +7.2  13  +39  +44  очень
жарко 
1008.1  994.3         
20:52 19.08 Ю  16 км    10/0 3300 м
[средняя] 
+42.2  +7.2  12  +40  +41  очень
жарко 
1007.2  993.6         
21:52 19.08 ЮВ  16 км    8/0 3300 м
[средняя] 
+42.8  +7.2  12  +40  +41  очень
жарко 
1006.3  992.6         
22:52 19.08 ЮЗ  16 км    8/0 3300 м
[средняя] 
+43.3  -2.8  +39  +41  очень
жарко 
1005.9  992.3  +36.7  +43.3     
23:52 19.08 З  16 км    8/0 3300 м
[средняя] 
+43.3  -3.9  +39  +40  очень
жарко 
1005.6  992.0         
00:52 20.08 ЮЗ  16 км    8/0 3300 м
[средняя] 
+41.7  -6.1  +37  +38  очень
жарко 
1005.5  992.0         
01:52 20.08 ЮЗ  16 км    8/0 3300 м
[средняя] 
+39.4  -2.8  +35  +35  очень
жарко 
1005.8  992.3         
02:52 20.08 З  16 км    2/0 3600 м
[средняя] 
+36.7  -2.2  +33  +33  жарко  1006.5  993.0         
03:52 20.08 З  16 км    ясно  +36.1  -1.7  +32  +32  жарко  1007.1  993.3         
04:52 20.08 З  16 км    ясно  +34.4  -0.6  11  +31  +31  жарко  1007.3  993.6  +34.4  +43.9     
05:52 20.08 З  16 км    ясно  +33.9  0.0  12  +31  +31  жарко  1007.4  993.6         
06:52 20.08 Ю  16 км    ясно  +30.6  +2.2  16  +28  +28  жарко  1007.2  993.6         
07:52 20.08 Ю  16 км    ясно  +30.0  +1.7  16  +27  +27  жарко  1007.2  993.6         
08:52 20.08   16 км    ясно  +28.9  +3.3  19  +27  +27  жарко  1007.5  993.6         
09:52 20.08 СЗ  16 км    ясно  +26.7  +1.1  19  +25  +25  комфорт  1007.5  994.0         
10:52 20.08 СЗ  16 км    ясно  +25.6  0.0  19  +24  +24  комфорт  1007.8  994.0  +25.6  +35.0     
11:52 20.08 СЗ  16 км    ясно  +26.7  0.0  17  +25  +25  комфорт  1008.2  994.6         
12:52 20.08 СЗ  16 км    ясно  +26.7  +0.6  18  +25  +25  комфорт  1008.7  995.0         
13:52 20.08   16 км    ясно  +29.4  +2.8  18  +27  +28  жарко  1009.2  995.6         
14:52 20.08 ЮВ  16 км    ясно  +32.8  +4.4  17  +30  +34  жарко  1009.3  995.6         
15:52 20.08 ЮВ  16 км    ясно  +35.0  +4.4  15  +32  +39  жарко  1009.6  996.0         
16:52 20.08 нст  16 км    2/0 3300 м
[средняя] 
+37.8  +3.9  12  +35  +44  очень
жарко 
1009.4  996.0  +25.6  +37.8     
17:52 20.08 нст  16 км    2/0 3300 м
[средняя] 
+38.9  +2.8  11  +36  +47  очень
жарко 
1009.0  995.3         
18:52 20.08 В  16 км    5/0 3300 м
[средняя] 
+41.1  +1.7  +38  +49  очень
жарко 
1008.1  994.6         

 

Местоположение метеостанции Blythe Airport: широта 33.6192 долгота -114.7169 высота над уровнем моря 121 м.

В архиве по умолчанию представлена погода в Блайте за последние 1-2 суток. Обновление информации о фактической погоде в базе происходит ежечасно! Архивные данные за месяц целиком и за предыдущие месяцы Вы можете получить, выбрав интересующий диапазон дат из раскрывающегося списка и нажав кнопку "Ввод!".

Внимание! Архив погоды МЕТАР в базе сайта хранится не более 60 дней. Нет смысла пытаться выбрать более раннюю дату.

Внимание! Время в таблицах - всемирное. Для получения местного времени необходимо прибавить поправку, которая в Блайте равна -8 ч.

Ветер - указаны скорость ветра в м/с и направление, откуда дует ветер: С - северный, СВ - северо-восточный, В - восточный, ЮВ - юго-восточный, Ю - южный, ЮЗ - юго-западный, З - западный, СЗ - северо-западный.
Видимость - горизонтальная дальность видимости в метрах или километрах. При видимости от 1 до 10 км при отсутствии осадков обычно наблюдается дымка, при ухудшении видимости до 1 км и менее - туман. В сухую погоду видимость может ухудшаться дымом, пылью или мглою.
Атмосферные явления - указаны явления, наблюдавшиеся в указанный момент времени.
Облачность - указаны через наклонную черту верхняя и нижняя облачность в баллах и высота нижней границы облаков в метрах. Внимание: облачность, как и прочие метеорологические величины в США измеряются автоматическими метеостанциями. Указанные значения в баллах носят условный характер и показывают процент времени, в течение которого, в среднем, лазерный луч высотомера отражался от облаков обратно.
T - Температура воздуха - температура, измеренная на высоте 2 м над землей.
Td - Температура точки росы - температура, при понижении до которой содержащийся в воздухе водяной пар достигнет насыщения.
f - Относительная влажность воздуха - влажноcть воздуха, измеренная на высоте 2 м над землей.
Te - Эффективная температура - температура, которую ощущает одетый по сезону человек в тени. Характеристика душности погоды. При расчете учитывается влияние влажности воздуха и скорости ветра на теплоощущения человека.
Tes - Эффективная температура на солнце - температура, которую ощущает человек, с поправкой на солнечный нагрев. Характеристика знойности погоды. Зависит от высоты солнца над горизонтом, облачности и скорости ветра. Ночью, в пасмурную погоду, а также при ветре 12 м/с и более поправка равна нулю.
P - Атмосферное давление - приведенное к уровню моря атмосферное давление.
Po - Атмосферное давление - измеренное на уровне метеостанции атмосферное давление.
Tmin - Минимальная температура - минимум температуры воздуха на высоте 2 м над землей.
Tmax - Максимальная температура - максимум температуры воздуха на высоте 2 м над землей.
R - Количество осадков - Количество выпавших осадков за 3 или 6 часов, мм.
SD - Снежный покров - Высота снежного покрова, см.